Location: Croisilles
(50.1998°N, 2.8793°E)
Time: 20:05:44
(UTC+00:00)

Cosmos 1400 Rocket - Pass Details

Date: 21 January 2021
Orbit: 520 x 568 km, 81.2° (Epoch: 02 March)

Event Time Altitude Azimuth Distance (km) Brightness Sun altitude
Rises 16:55:53 0° 342° (NNW) 2,778 6.3 -5.4°
Reaches altitude 10° 16:58:09 10° 336° (NNW) 1,872 5.5 -5.7°
Maximum altitude 17:02:04 43° 265° (W) 793 4.3 -6.3°
Drops below altitude 10° 17:05:55 10° 193° (SSW) 1,835 6.0 -6.8°
Sets 17:08:07 0° 187° (S) 2,716 6.8 -7.1°
